This is the latest recevied weather packets stored in our database for station/object SR9SMR. If no packets are shown the sender has not sent any weather packets the latest 1 day(s).
| Time | Temp. | Humidity | Pressure | Rain* | Wind** | Luminosity | Snow |
|---|---|---|---|---|---|---|---|
| 1778056256 | 12.78° C | 100% | 893.7 hPa | - | - | - | - |
| 1778056075 | 12.78° C | 100% | 893.7 hPa | - | - | - | - |
| 1778055954 | 12.78° C | 100% | 897.1 hPa | - | - | - | - |
| 1778055713 | 12.22° C | 100% | 893.6 hPa | - | - | - | - |
| 1778055653 | 12.22° C | 100% | 893.4 hPa | - | - | - | - |
| 1778055338 | 12.22° C | 100% | 895.5 hPa | - | - | - | - |
| 1778055217 | 12.22° C | 100% | 893.2 hPa | - | - | - | - |
| 1778054913 | 12.22° C | 100% | 893.6 hPa | - | - | - | - |
| 1778054701 | 12.22° C | 100% | 894 hPa | - | - | - | - |
| 1778054568 | 12.22° C | 100% | 893.9 hPa | - | - | - | - |
| 1778054412 | 12.22° C | 100% | 893.5 hPa | - | - | - | - |
| 1778054291 | 12.22° C | 100% | 897.3 hPa | - | - | - | - |
| 1778054110 | 12.78° C | 100% | 893.7 hPa | - | - | - | - |
| 1778053983 | 12.78° C | 100% | 893.2 hPa | - | - | - | - |
| 1778053617 | 12.22° C | 100% | 893 hPa | - | - | - | - |
| 1778053494 | 12.22° C | 100% | 892.9 hPa | - | - | - | - |
| 1778053438 | 12.22° C | 100% | 893.2 hPa | - | - | - | - |
| 1778053372 | 12.22° C | 100% | 894 hPa | - | - | - | - |
| 1778053126 | 11.67° C | 100% | 892.9 hPa | - | - | - | - |
| 1778053005 | 11.67° C | 100% | 892.5 hPa | - | - | - | - |
| 1778052945 | 11.67° C | 100% | 892.5 hPa | - | - | - | - |
| 1778052803 | 11.67° C | 100% | 891.8 hPa | - | - | - | - |
| 1778052680 | 11.11° C | 100% | 892.2 hPa | - | - | - | - |
| 1778052620 | 11.11° C | 100% | 896.7 hPa | - | - | - | - |
| 1778052437 | 11.67° C | 100% | 891.9 hPa | - | - | - | - |
* Rain since midnight (hover to see other rain measurements)
** Current wind speed in m/s (hover to see current wind gust speed)